www.pogodaiklimat.ru
ПОГОДА в Рованиеми

Архив погоды в Рованиеми (Финляндия)

Время
(UTC), дата
01 26.02
02 26.02
03 26.02
04 26.02
05 26.02
06 26.02
07 26.02
08 26.02
09 26.02
10 26.02
11 26.02
12 26.02
13 26.02
14 26.02
15 26.02
16 26.02
17 26.02
18 26.02
19 26.02
20 26.02
21 26.02
22 26.02
23 26.02
00 27.02
01 27.02
02 27.02
03 27.02
04 27.02
05 27.02
06 27.02
07 27.02
08 27.02
09 27.02
10 27.02
11 27.02
12 27.02
13 27.02
14 27.02
15 27.02
16 27.02
17 27.02
18 27.02
19 27.02
20 27.02
21 27.02
22 27.02
23 27.02
00 28.02
01 28.02
02 28.02
03 28.02
04 28.02
05 28.02
06 28.02
07 28.02
08 28.02
09 28.02
10 28.02
11 28.02
12 28.02
13 28.02
14 28.02
15 28.02
16 28.02
17 28.02
18 28.02
19 28.02
20 28.02
21 28.02
22 28.02
23 28.02
00 29.02
01 29.02
02 29.02
03 29.02
04 29.02
05 29.02
06 29.02
07 29.02
08 29.02
09 29.02
10 29.02
11 29.02
12 29.02
13 29.02
14 29.02
15 29.02
16 29.02
17 29.02
18 29.02
19 29.02
20 29.02
21 29.02
22 29.02
23 29.02
00 1.03
01 1.03
02 1.03
03 1.03
04 1.03
05 1.03
06 1.03
07 1.03
08 1.03
09 1.03
10 1.03
11 1.03
12 1.03
13 1.03
14 1.03
15 1.03
16 1.03
17 1.03
18 1.03
19 1.03
20 1.03
21 1.03
22 1.03
23 1.03
00 2.03
01 2.03
02 2.03
03 2.03
04 2.03
05 2.03
06 2.03
07 2.03
08 2.03
09 2.03
10 2.03
11 2.03
12 2.03
13 2.03
14 2.03
15 2.03
16 2.03
17 2.03
18 2.03
19 2.03
20 2.03
21 2.03
22 2.03
23 2.03
00 3.03
01 3.03
02 3.03
03 3.03
04 3.03
05 3.03
06 3.03
07 3.03
08 3.03
09 3.03
10 3.03
11 3.03
12 3.03
13 3.03
14 3.03
15 3.03
16 3.03
17 3.03
18 3.03
19 3.03
20 3.03
21 3.03
22 3.03
23 3.03
00 4.03
01 4.03
Ветер
(напр.,м/с)
Видим. Явления Облачность Т
(С)
Тd
(С)
f
(%)
Тe
(С)
Тes
(С)
Комфортность P
(гПа)
Po
(гПа)
Тmin
(С)
Tmax
(С)
R
(мм)
R24
(мм)
S
(см)
ЮЗ 5-8 {10} 6000 м слаб. морось 10/10 210 м +0.8 +0.1 95 -5 -5 1003.5 993.3
ЮЗ 6-11 {11} 12 км в посл. час морось 10/10 180 м +0.6 -0.1 95 -6 -6 1003.4 993.2
ЮЗ 5-8 {10} 15 км {ливн. дождь, дождь} 10/10 150 м +0.2 -0.3 96 -6 -6 1003.5 993.3
ЮЗ 5-9 {10} 18 км 10/10 150 м +0.1 -0.5 96 -6 -6 1003.9 993.6
ЮЗ 5-11 {11} 13 км 10/10 180 м +0.2 -0.4 96 -6 -6 1004.0 993.8
ЮЗ 5-9 {12} 13 км {ливн. дождь, дождь} 10/10 150 м +0.2 -0.2 97 -6 -6 1004.2 993.9 0.0 +1.3
Ю 7-12 {12} 50 км 10/10 180 м +0.5 -0.4 94 -7 -7 1004.3 994.0
ЮЗ 6-10 {12} 50 км 10/10 210 м +0.5 -0.4 94 -6 -6 1004.8 994.5
ЮЗ 5-11 {14} 40 км 10/10 210 м +0.4 -0.4 94 -6 -6 1004.9 994.6
ЮЗ 5-10 {12} 50 км 10/10 210 м +0.5 -0.7 92 -6 -6 1005.2 994.9
ЮЗ 5-10 {11} 45 км 10/10 270 м +0.5 -0.9 90 -6 -6 1005.5 995.3
ЮЗ 5-9 {12} 50 км 10/10 210 м +0.1 -1.0 92 -6 -6 1005.8 995.5
ЮЗ 6-9 {10} 40 км 10/10 180 м -0.3 -1.1 94 -7 -7 1006.0 995.7
ЮЗ 5-8 {12} 35 км 9/9 180 м -0.4 -1.2 94 -7 -7 1006.4 996.0
ЮЗ 4-7 {10} 19 км 9/9 180 м -0.5 -1.2 95 -6 -6 1006.9 996.6
ЮЗ 6-10 {10} 17 км слаб. снег 9/9 210 м -0.6 -1.4 94 -8 -8 1007.5 997.1
ЮЗ 5-7 {9} 50 км в посл. час осадки 9/9 180 м -0.5 -1.3 94 -7 -7 1007.7 997.4
ЮЗ 4-6 {7} 50 км {ливн. снег, снег} 9/9 180 м -0.6 -1.3 95 -6 -6 1008.4 998.1 -0.7 +0.5
ЮЗ 4-7 {7} 45 км 9/9 180 м -0.6 -1.4 94 -6 -6 1008.9 998.5
ЮЗ 4-6 {6} 40 км 9/9 100 м -0.7 -1.4 95 -7 -7 1009.1 998.7
ЮЗ 3-5 {6} 45 км 9/9 100 м -0.9 -1.5 96 -6 -6 1009.7 999.3
ЮЗ 3-5 {7} 40 км 9/9 180 м -1.0 -1.6 96 -6 -6 1009.8 999.4
ЮЗ 3-4 {7} 30 км 9/9 150 м -1.2 -1.6 97 -6 -6 1010.2 999.8
ЮЗ 2-4 {6} 4300 м осадки 9/9 150 м -1.4 -1.9 96 -5 -5 1010.5 1000.1
Ю 2-4 {4} 9000 м снежные зёрна 9/9 270 м -1.4 -2.3 94 -5 -5 1010.7 1000.3
Ю 4-6 {6} 11 км снежные зёрна 9/9 270 м -1.7 -3.0 91 -8 -8 1011.0 1000.5
ЮЗ 2-5 {5} 3300 м снежные зёрна 9/9 270 м -1.9 -2.8 94 -6 -6 1011.3 1000.9
Ю 3-5 {6} 10 км снежные зёрна 9/9 270 м -1.9 -3.1 91 -7 -7 1011.3 1000.9
Ю 3-5 {5} 13 км снежные зёрна 9/9 270 м -1.9 -3.1 91 -7 -7 1011.7 1001.2
ЮЗ 3-5 {6} 30 км слаб. снег 9/9 200 м -1.9 -3.1 91 -7 -7 1011.9 1001.5 -2.0 -0.6
ЮЗ 3-5 {5} 19 км снежные зёрна 9/9 270 м -2.0 -3.4 90 -7 -7 1012.3 1001.8
Ю 3-5 {5} 10 км снежные зёрна 9/9 200 м -2.1 -3.4 91 -7 -7 1012.6 1002.1
ЮЗ 3-6 {6} 8000 м слаб. снег 9/9 300 м -2.1 -3.6 89 -7 -7 1012.8 1002.4
ЮЗ 3-5 {8} 3700 м слаб. снег 9/9 300 м -1.8 -3.1 91 -7 -7 1013.1 1002.7
Ю 4-7 {7} 30 км слаб. снег 9/9 240 м -1.7 -3.5 87 -8 -7 1013.2 1002.7
ЮЗ 4-7 {7} 40 км в посл. час снег 9/9 200 м -1.5 -3.3 88 -7 -7 1013.4 1002.9
ЮЗ 3-6 {8} 45 км 9/9 330 м -1.7 -3.6 87 -7 -7 1013.5 1003.1
ЮЗ 3-6 {6} 50 км 9/9 400 м -1.7 -3.7 86 -7 -7 1013.7 1003.3
Ю 4-7 {7} 30 км туман местами 9/9 300 м -1.9 -3.5 89 -8 -8 1013.6 1003.1
Ю 5-8 {8} 27 км снежные зёрна 9/9 330 м -2.2 -3.8 89 -9 -9 1013.7 1003.2
Ю 3-7 {8} 26 км снежные зёрна 9/9 330 м -2.4 -4.0 89 -8 -8 1013.8 1003.3
Ю 5-8 {9} 40 км в посл. час осадки 9/9 300 м -2.3 -4.3 86 -9 -9 1013.8 1003.4 -2.4 -1.3
Ю 3-7 {8} 15 км слаб. ливневой снег 10/10 400 м -2.3 -4.0 88 -7 -7 1013.6 1003.1
Ю 4-9 {9} 50 км в посл. час зёрна 10/10 300 м -1.9 -3.6 88 -8 -8 1013.3 1002.9
Ю 3-6 {7} 50 км {ливн. снег, снег} 9/9 330 м -1.8 -3.5 88 -7 -7 1012.8 1002.4
Ю 3-6 {6} 50 км 9/9 1020 м -2.0 -3.7 88 -7 -7 1012.6 1002.1
Ю 3-4 {5} 50 км 10/10 450 м -2.3 -4.1 87 -7 -7 1012.1 1001.6
Ю 4-9 {9} 50 км {ливн. снег, снег} 10/10 300 м -2.3 -3.8 89 -8 -8 1011.8 1001.3
Ю 4-6 {10} 10 км слаб. снег 10/10 480 м -2.3 -3.7 90 -8 -8 1011.2 1000.7
Ю 5-8 {9} 23 км в посл. час снег 10/10 600 м -1.8 -3.7 87 -8 -8 1010.5 1000.1
Ю 5-8 {10} 50 км {снег, туман} 10/10 500 м -1.5 -3.5 86 -8 -8 1009.9 999.5
Ю 6-10 {11} 40 км 10/10 450 м -1.3 -3.3 86 -8 -8 1009.7 999.3
Ю 5-9 {11} 21 км слаб. снег 10/10 480 м -1.4 -3.3 87 -8 -8 1009.5 999.2
Ю 5-10 {10} 13 км слаб. ливневой снег 10/10 450 м -1.3 -3.2 87 -8 -8 1009.1 998.7 -2.6 -1.2
Ю 7-12 {12} 45 км в посл. час снег 10/10 540 м -0.7 -3.2 83 -8 -8 1008.7 998.3
Ю 7-12 {15} 40 км слаб. ливневой снег 10/10 480 м -0.5 -2.9 84 -8 -8 1008.6 998.3
Ю 6-9 {12} 19 км слаб. снег 10/10 500 м -0.4 -2.9 83 -7 -7 1008.3 998.0
Ю 7-11 {11} 9000 м снежные зёрна 10/10 500 м -0.4 -2.6 85 -8 -8 1008.2 997.9
Ю 6-12 {13} 18 км снежные зёрна 10/10 630 м -0.2 -2.6 84 -7 -7 1008.1 997.8
Ю 6-11 {13} 27 км слаб. снег 10/10 540 м -0.1 -2.7 83 -7 -7 1007.9 997.6
Ю 6-10 {13} 9000 м снежные зёрна 10/10 500 м -0.1 -2.4 84 -7 -7 1007.7 997.4
ЮЗ 6-11 {12} 11 км снежные зёрна 10/10 480 м -0.2 -2.4 85 -7 -7 1007.4 997.1
Ю 7-11 {13} 7000 м снежные зёрна 10/10 600 м -0.2 -2.5 84 -7 -7 1007.2 996.9
ЮЗ 6-10 {13} 4000 м слаб. снег 10/10 600 м -0.4 -2.3 87 -7 -7 1007.2 996.8
Ю 6-12 {12} 7000 м слаб. снег 10/10 480 м -0.4 -2.6 85 -7 -7 1007.1 996.8
Ю 5-9 {10} 8000 м слаб. снег 10/10 480 м -0.7 -2.7 86 -7 -7 1006.8 996.5 -1.3 0.0
Ю 5-9 {10} 5000 м слаб. снег 10/10 480 м -1.0 -2.7 88 -7 -7 1006.8 996.5
Ю 5-10 {11} 10 км осадки 10/10 450 м -1.0 -2.8 88 -7 -7 1006.8 996.5
Ю 5-9 {11} 6000 м осадки 10/10 400 м -1.2 -2.4 92 -8 -8 1007.1 996.8
ЮЗ 5-8 {8} 6000 м снежные зёрна 10/10 420 м -1.0 -2.6 89 -7 -7 1007.3 997.0
Ю 5-9 {9} 14 км снежные зёрна 10/10 570 м -1.0 -2.6 89 -7 -7 1007.1 996.7
Ю 4-8 {9} 3000 м снежные зёрна 10/10 300 м -1.1 -2.1 93 -7 -7 1007.3 997.0
ЮЗ 4-7 {9} 5000 м слаб. снег 9/9 570 м -0.9 -1.9 93 -7 -7 1007.5 997.1
Ю 3-5 {6} 3400 м слаб. снег 10/10 300 м -0.7 -1.6 94 -6 -6 1007.5 997.2
Ю 4-7 {7} 3800 м слаб. снег 10/10 240 м -0.6 -1.3 95 -6 -6 1007.6 997.3
ЮЗ 6-10 {10} 10 км слаб. дождь со снегом 10/10 210 м -0.4 -1.1 95 -7 -7 1007.8 997.5
ЮЗ 5-9 {9} 7000 м слаб. дождь со снегом 10/10 210 м -0.4 -1.1 95 -7 -7 1008.3 998.0
ЮЗ 5-9 {10} 2400 м слаб. снег 10/10 210 м -0.5 -1.1 96 -7 -7 1008.7 998.3 -1.2 -0.3
Ю 5-8 {10} 7000 м слаб. дождь со снегом 10/10 210 м -0.2 -1.0 94 -7 -7 1009.0 998.7
ЮЗ 4-7 {9} 2100 м слаб. снег 10/10 240 м -0.3 -1.0 95 -6 -6 1009.6 999.3
ЮЗ 5-8 {9} 2600 м слаб. снег 10/10 240 м -0.2 -0.9 95 -7 -7 1009.9 999.6
ЮЗ 4-9 {9} 5000 м слаб. снег 10/10 240 м -0.1 -0.9 94 -6 -6 1010.5 1000.2
Ю 4-8 {10} 4100 м слаб. снег 10/10 300 м 0.0 -0.9 94 -6 -6 1010.8 1000.5
Ю 5-8 {9} 4200 м слаб. снег 10/10 360 м -0.2 -1.2 93 -6 -6 1011.0 1000.7
Ю 5-8 {9} 30 км снежные зёрна 10/10 600 м +0.3 -1.6 87 -6 -6 1010.6 1000.3
Ю 5-8 {10} 35 км ливневой дождь 9/9 930 м 0.0 -1.8 88 -6 -6 1010.2 999.9
Ю 5-8 {9} 50 км в посл. час осадки 10/10 450 м +0.3 -1.4 88 -6 -6 1010.1 999.8
ЮВ 5-9 {12} 35 км ливневой дождь 10/10 500 м +0.4 -1.4 88 -6 -6 1009.3 999.0
Ю 5-9 {9} 6000 м слаб. ливневой снег 10/10 450 м +0.4 -1.0 90 -6 -6 1008.8 998.5
Ю 5-9 {11} 10 км слаб. ливневой дождь 10/10 330 м +0.9 -0.3 92 -5 -5 1008.0 997.7 -0.5 +1.0
Ю 6-11 {11} 16 км слаб. ливневой дождь 10/10 480 м +1.5 -0.2 88 -5 -5 1007.6 997.4
Ю 6-11 {11} 40 км в посл. час морось 10/10 660 м +1.7 -0.2 87 -4 -4 1007.5 997.2
Ю 6-11 {13} 12 км слаб. дождь 10/10 500 м +1.3 +0.1 92 -5 -5 1007.4 997.2
Ю 5-9 {12} 18 км морось 10/10 400 м +1.4 +0.1 91 -4 -4 1007.3 997.0
Ю 5-10 {12} 7000 м слаб. дождь со снегом 10/10 360 м +1.1 0.0 92 -5 -5 1007.4 997.1
Ю 5-10 {12} 4100 м морось 10/10 300 м +1.0 +0.2 94 -5 -5 1007.5 997.2
ЮЗ 6-10 {12} 4900 м морось 10/10 330 м +1.1 +0.2 94 -5 -5 1007.8 997.5
ЮЗ 5-9 {13} 4000 м морось 10/10 270 м +1.0 +0.2 94 -5 -5 1008.4 998.1
ЮЗ 5-8 {11} 4100 м морось {снег} 10/10 270 м +0.8 +0.1 95 -5 -5 1008.6 998.3
ЮЗ 6-11 {11} 4600 м морось 10/10 240 м +0.8 +0.1 95 -6 -6 1009.0 998.7
ЮЗ 5-9 {11} 5000 м слаб. снег 10/10 300 м +0.6 0.0 96 -6 -6 1009.4 999.1
ЮЗ 5-8 {9} 8000 м слаб. дождь со снегом 10/10 210 м +0.7 +0.2 96 -5 -5 1009.9 999.6 +0.5 +1.8
ЮЗ 6-11 {11} 16 км в посл. час осадки 10/10 100 м +0.7 +0.3 97 -6 -6 1010.8 1000.5
ЮЗ 5-10 {11} 8000 м дымка 10/10 50 м +0.8 +0.4 97 -5 -5 1011.5 1001.2
ЮЗ 5-10 {10} 3500 м слаб. морось 10/10 180 м +1.0 +0.3 95 -5 -5 1011.9 1001.6
ЮЗ 6-10 {10} 4400 м слаб. морось 10/10 210 м +1.1 +0.5 96 -5 -5 1012.3 1002.0
ЮЗ 6-10 {10} 6000 м в посл. час морось 10/10 210 м +1.2 +0.6 96 -5 -5 1012.7 1002.4
ЮЗ 6-11 {11} 7000 м дымка 10/10 180 м +1.2 +0.7 96 -5 -5 1012.8 1002.5
ЮЗ 7-12 {12} 7000 м дымка 10/10 180 м +1.2 +0.6 96 -6 -6 1013.4 1003.1
ЮЗ 6-10 {11} 6000 м слаб. морось 10/10 100 м +1.1 +0.6 96 -5 -5 1014.0 1003.7
ЮЗ 6-10 {12} 11 км морось 10/10 240 м +1.3 +0.4 94 -5 -5 1014.3 1004.0
ЮЗ 5-9 {13} 6000 м в посл. час морось 10/10 270 м +1.2 +0.3 94 -5 -5 1014.7 1004.4
ЮЗ 6-11 {12} 18 км 10/10 300 м +1.2 -0.1 91 -5 -5 1015.0 1004.7
ЮЗ 7-12 {12} 23 км {дождь, морось} 10/10 300 м +1.3 -0.1 90 -6 -6 1015.4 1005.1 +0.6 +1.5
ЮЗ 8-13 {14} 28 км 10/10 300 м +1.2 -0.3 90 -6 -6 1015.6 1005.3
ЮЗ 6-13 {13} 12 км 10/10 210 м +1.6 +0.6 93 -5 -5 1016.0 1005.6
ЮЗ 6-10 {12} 10 км 10/10 240 м +1.6 +0.6 93 -5 -5 1016.3 1005.9
ЮЗ 6-9 {12} 6000 м дымка 10/10 210 м +1.7 +1.0 95 -5 -5 1016.5 1006.2
ЮЗ 6-11 {12} 11 км 10/10 210 м +1.8 +0.9 94 -5 -5 1016.7 1006.3
ЮЗ 5-9 {12} 11 км 10/10 210 м +1.7 +0.8 94 -4 -4 1017.3 1006.9
ЮЗ 5-8 {11} 9000 м морось 10/10 300 м +1.5 +0.3 92 -4 -4 1017.5 1007.2
ЮЗ 4-8 {9} 5000 м морось 10/10 270 м +1.0 +0.2 94 -4 -4 1017.7 1007.3
ЮЗ 5-9 {9} 15 км в посл. час снег 10/10 210 м +0.8 +0.2 96 -5 -5 1017.8 1007.4
ЮЗ 4-9 {10} 7000 м дымка 10/10 240 м +0.9 +0.1 94 -5 -5 1017.8 1007.4
ЮЗ 5-8 {10} 3400 м морось 10/10 180 м +0.8 +0.3 96 -5 -5 1017.8 1007.5
ЮЗ 5-9 {9} 6000 м слаб. ливневой дождь 10/10 240 м +0.9 +0.5 97 -5 -5 1018.2 1007.8 +0.7 +1.9
ЮЗ 6-9 {10} 2800 м морось 10/10 210 м +1.1 +0.5 96 -5 -5 1019.1 1008.7
ЮЗ 6-10 {10} 27 км слаб. морось 10/10 270 м +1.1 +0.3 94 -5 -5 1018.7 1008.3
ЮЗ 6-11 {11} 15 км {ливн. дождь, дождь} 9/9 240 м +1.2 +0.3 94 -5 -5 1019.3 1008.9
ЮЗ 5-8 {9} 17 км 10/10 180 м +1.1 +0.4 95 -5 -5 1019.9 1009.5
ЮЗ 5-9 {9} 10 км 10/10 150 м +1.0 +0.5 96 -5 -5 1020.0 1009.6
ЮЗ 5-9 {10} 7000 м дымка 9/9 50 м +0.9 +0.5 97 -5 -5 1020.6 1010.2
ЮЗ 5-8 {9} 5000 м дымка 10/10 120 м +0.9 +0.6 98 -5 -5 1020.6 1010.2
ЮЗ 5-9 {11} 4900 м дымка 10/10 120 м +1.0 +0.7 98 -5 -5 1020.9 1010.5
ЮЗ 3-5 {8} 3400 м дымка 9/9 50 м +0.8 +0.7 99 -4 -4 1021.3 1010.8
ЮЗ 3-5 {6} 1800 м дымка 9/9 50 м +0.7 +0.6 99 -4 -4 1021.2 1010.8
ЮЗ 3-5 {6} 1600 м дымка 9/9 90 м +0.7 +0.7 100 -4 -4 1021.8 1011.4
ЮЗ 3-5 {6} 2100 м дымка 9/9 120 м +0.7 +0.7 100 -4 -4 1022.1 1011.7 +0.6 +1.3
ЮЗ 3-5 {5} 2100 м дымка 9/9 50 м +0.7 +0.7 100 -4 -4 1022.5 1012.1
ЮЗ 3-6 {6} 2200 м дымка 9/9 90 м +0.7 +0.7 100 -4 -4 1022.6 1012.1
ЮЗ 4-6 {7} 2500 м дымка 9/9 120 м +0.7 +0.6 99 -5 -5 1022.7 1012.3
ЮЗ 4-6 {6} 3600 м дымка 9/9 50 м +0.6 +0.6 100 -5 -5 1022.9 1012.5
ЮЗ 3-5 {6} 1900 м дымка 9/9 50 м +0.6 +0.5 99 -4 -4 1022.9 1012.4
ЮЗ 3-5 {6} 2000 м дымка 9/9 90 м +0.6 +0.5 99 -4 -4 1022.7 1012.2
ЮЗ 3-4 {6} 3500 м дымка 9/9 120 м +0.6 +0.5 99 -4 -4 1022.7 1012.2
ЮЗ 3-5 {6} 3300 м дымка 9/9 90 м +0.5 +0.5 100 -4 -4 1022.5 1012.0
ЮЗ 3-6 {6} 4500 м дымка 9/9 120 м +0.5 +0.4 99 -4 -4 1022.2 1011.8
ЮЗ 4-7 {7} 2200 м дымка 9/9 120 м +0.5 +0.4 99 -5 -5 1022.2 1011.8
ЮЗ 3-6 {7} 2400 м слаб. ливневой дождь 9/9 <50 м +0.4 +0.4 100 -4 -4 1022.3 1011.8
ЮЗ 4-6 {6} 6000 м морось 9/9 120 м +0.4 +0.3 99 -5 -5 1022.2 1011.8 +0.4 +0.8
ЮЗ 3-6 {7} 7000 м морось 9/9 120 м +0.3 +0.2 99 -5 -4 1022.4 1012.0
ЮЗ 3-6 {6} 4900 м слаб. дождь 9/9 50 м +0.2 +0.1 99 -5 -5 1022.8 1012.3
ЮЗ 3-5 {6} 8000 м морось 9/9 120 м +0.2 0.0 99 -5 -5 1023.1 1012.7
ЮЗ 3-6 {6} 7000 м слаб. снег 9/9 120 м +0.2 +0.1 99 -5 -5 1023.1 1012.7
ЮЗ 3-5 {6} 9000 м снежные зёрна 9/9 120 м +0.3 +0.1 99 -5 -4 1022.9 1012.5
ЮЗ 2-3 {4} 10 км снежные зёрна 9/9 120 м +0.4 +0.2 99 -3 -3 1023.3 1012.9
З 2-3 {5} 4900 м слаб. снег 9/9 120 м +0.3 +0.1 99 -4 -3 1023.5 1013.0
З 1-2 {3} 5000 м слаб. снег 9/9 50 м +0.2 +0.1 99 -2 -2 1023.5 1013.1
штиль 0-1 {2} 6000 м снежные зёрна 9/9 50 м +0.3 +0.1 99 -1 -1 1023.7 1013.2
З 1-1 {2} 5000 м в посл. час морось 9/9 120 м +0.3 +0.1 99 -2 -2 1024.1 1013.7
СЗ 1-1 {2} 3600 м дымка 9/9 150 м +0.3 +0.2 99 -2 -2 1024.9 1014.4
СВ 1-2 {2} 2700 м дымка 9/9 150 м +0.5 +0.4 99 -2 -2 1025.4 1014.9 +0.1 +0.5
СВ 1-1 {2} 11 км 9/9 300 м +0.7 +0.5 99 -1 -1 1025.8 1015.3
СВ 1-2 {3} 24 км 10/10 300 м +0.8 +0.5 98 -1 -1 1026.4 1016.0
С 1-1 {3} 23 км 10/10 540 м +0.8 +0.5 98 -1 -1 1026.8 1016.3
С 1-2 {3} 35 км 10/10 600 м +0.9 +0.5 97 -1 -1 1027.4 1017.0
С 2-3 {3} 27 км 10/10 600 м +0.8 +0.5 98 -3 -3 1028.1 1017.6
С 2-4 {4} 30 км 10/10 600 м +0.7 +0.4 98 -3 -3 1028.3 1017.8
С 1-3 {3} 30 км 10/10 600 м +0.6 +0.3 98 -2 -2 1028.7 1018.2
Местоположение метеостанции Рованиеми (Финляндия): широта 66.50 долгота 25.71 высота над уровнем моря 85 м.
В архиве по умолчанию представлена погода в Рованиеми за последнюю неделю. Архивные данные за месяц целиком и за предыдущие месяцы, начиная с января 2011 года, Вы можете получить, выбрав интересующий диапазон дат из раскрывающегося списка и нажав кнопку "Найти!".
*Определитесь, кто Вы:
Внимание! Время в таблицах - всемирное. Для получения местного времени необходимо прибавить поправку, которая равна 1 ч.
Некоторые строки с данными для отдельных станций могут быть выделены курсивом. Это означает, что фактические данные отсутствуют по различным причинам, а приведенные значения являются расчетными модельными данными для данного пункта наблюдений.
Смотрите также архив погоды в соседних городах и на ближайших метеорологических станциях:
Партнеры нашего сайта:      
Пояснения к столбцам:
  • Ветер - указаны скорость ветра в м/с - средняя за 10 мин, порывы в срок и между сроками (в фигурных скобках) и направление, откуда дует ветер: С - северный,
  • СВ - северо-восточный, В - восточный, ЮВ - юго-восточный, Ю - южный, ЮЗ - юго-западный, З - западный, СЗ - северо-западный.
  • Видимость - горизонтальная дальность видимости в метрах или километрах. При видимости от 1 до 10 км при отсутствии осадков обычно наблюдается дымка, при ухудшении видимости до 1 км и менее - туман. В сухую погоду видимость может ухудшаться дымом, пылью или мглою.
  • Явления - указаны атмосферные явления, наблюдавшиеся в срок или в последний час перед сроком; фигурными скобками обозначены явления, наблюдавшиеся между сроками (за 1-3 часа до срока); квадратными скобками обозначены град или гололедные отложения с указанием их диаметра в мм.
  • Облачность - указаны через наклонную черту общая и нижняя облачность в баллах и высота нижней границы облаков в метрах; квадратными скобками обозначены формы облаков: Ci - перистые, Cs - перисто-слоистые, Cc - перисто-кучевые, Ac - высококучевые, As - высокослоистые, Sc - слоисто-кучевые, Ns - слоисто-дождевые, Cu - кучевые, Cb - кучево-дождевые. Подробнее классификацию облаков см. в Атласе облаков (PDF).
  • T - Температура воздуха - температура, измеренная на высоте 2 м над землей.
  • Td - Температура точки росы - температура, при понижении до которой содержащийся в воздухе водяной пар достигнет насыщения.
  • f - Относительная влажность воздуха - влажноcть воздуха, измеренная на высоте 2 м над землей.
  • Te - Эффективная температура - температура, которую ощущает одетый по сезону человек в тени. Характеристика душности погоды. При расчете учитывается влияние влажности воздуха и скорости ветра на теплоощущения человека.
  • Tes - Эффективная температура на солнце - температура, которую ощущает человек, с поправкой на солнечный нагрев. Характеристика знойности погоды. Зависит от высоты солнца над горизонтом, облачности и скорости ветра. Ночью, в пасмурную погоду, а также при ветре 12 м/с и более поправка равна нулю.
  • P - Атмосферное давление - приведенное к уровню моря атмосферное давление.
  • Po - Атмосферное давление - измеренное на уровне метеостанции атмосферное давление.
  • Tmin - Минимальная температура - минимум температуры воздуха на высоте 2 м над землей.
  • Tmax - Максимальная температура - максимум температуры воздуха на высоте 2 м над землей.
  • R - Количество осадков - Количество выпавших осадков за период времени, мм. При наведении курсора мыши на число - период времени, за который выпало указанное количество осадков.
  • R24 - Количество осадков - Количество выпавших осадков за 24 часа, мм.
  • S - Снежный покров - Высота снежного покрова, см. При наведении курсора мыши на число - состояние снежного покрова и степень покрытия местности в баллах.